Overview Statistics Trail Chart Weather Telemetry Raw packets
 

This is the latest recevied weather packets stored in our database for station/object K6CEG. If no packets are shown the sender has not sent any weather packets the latest 10 day(s).

<< 4 5 6 7 8 9 10 >>
Time Temp. Humidity Pressure Rain* Wind** Luminosity Snow
1788648401 33.33° C 26% 1013.9 hPa 0 mm - 46 W/m² -
1788648096 32.78° C 27% 1013.9 hPa 0 mm - 57 W/m² -
1788647793 32.78° C 26% 1014.1 hPa 0 mm - 429 W/m² -
1788647489 33.33° C 25% 1014 hPa 0 mm - 49 W/m² -
1788647185 33.33° C 25% 1014.3 hPa 0 mm - 56 W/m² -
1788646880 33.33° C 25% 1014.2 hPa 0 mm - 46 W/m² -
1788646576 33.33° C 25% 1014.2 hPa 0 mm - 40 W/m² -
1788646272 33.33° C 25% 1014.1 hPa 0 mm - 41 W/m² -
1788645967 32.78° C 22% 1014.3 hPa 0 mm - 237 W/m² -
1788645663 33.89° C 22% 1014.4 hPa 0 mm - 55 W/m² -
1788645362 33.33° C 22% 1014.3 hPa 0 mm - 41 W/m² -
1788645058 32.78° C 20% 1014.5 hPa 0 mm - 39 W/m² -
1788644755 33.33° C 21% 1014.5 hPa 0 mm - 546 W/m² -
1788644455 33.89° C 20% 1014.5 hPa 0 mm - 210 W/m² -
1788644150 33.89° C 22% 1014.5 hPa 0 mm - 618 W/m² -
1788643845 33.33° C 20% 1014.8 hPa 0 mm - 43 W/m² -
1788643545 33.33° C 20% 1014.6 hPa 0 mm - 331 W/m² -
1788643245 33.33° C 20% 1014.7 hPa 0 mm - 310 W/m² -
1788642954 32.78° C 20% 1015.1 hPa 0 mm - 530 W/m² -
1788642636 33.33° C 21% 1014.9 hPa 0 mm - 521 W/m² -
1788642332 33.33° C 20% 1015.1 hPa 0 mm - 689 W/m² -
1788642032 32.22° C 22% 1015.1 hPa 0 mm - 523 W/m² -
1788641731 32.78° C 21% 1015.1 hPa 0 mm - 410 W/m² -
1788641431 33.33° C 21% 1015.1 hPa 0 mm - 507 W/m² -
1788641126 33.33° C 22% 1015.1 hPa 0 mm - 598 W/m² -

* Rain latest hour (hover to see other rain measurements)
** Current wind speed in m/s (hover to see current wind gust speed)